This is the latest recevied weather packets stored in our database for station/object F5LKO-13. If no packets are shown the sender has not sent any weather packets the latest 1 day(s).
| Time | Temp. | Humidity | Pressure | Rain* | Wind** | Luminosity | Snow |
|---|---|---|---|---|---|---|---|
| 1778090645 | 15.56° C | 99% | 1015.7 hPa | 0 mm | - | 0 W/m² | - |
| 1778090032 | 16.11° C | 99% | 1015.5 hPa | 0 mm | - | 0 W/m² | - |
| 1778089114 | 16.67° C | 99% | 1015.5 hPa | 0 mm | - | 0 W/m² | - |
| 1778088808 | 16.67° C | 99% | 1015.5 hPa | 0 mm | - | 1 W/m² | - |
| 1778088502 | 16.67° C | 99% | 1015.6 hPa | 0 mm | - | 1 W/m² | - |
| 1778088196 | 17.78° C | 99% | 1015.5 hPa | 0 mm | - | 0 W/m² | - |
| 1778086972 | 18.33° C | 99% | 1015.5 hPa | 0 mm | - | 1 W/m² | - |
| 1778086665 | 17.78° C | 99% | 1015.5 hPa | 0 mm | - | 1 W/m² | - |
| 1778086359 | 17.78° C | 99% | 1015.5 hPa | 0 mm | - | 1 W/m² | - |
| 1778086061 | 17.22° C | 99% | 1015.5 hPa | 0 mm | - | 1 W/m² | - |
| 1778085746 | 18.33° C | 99% | 1015.5 hPa | 0 mm | - | 2 W/m² | - |
| 1778085440 | 18.89° C | 99% | 1015.4 hPa | 0 mm | - | 0 W/m² | - |
| 1778082388 | 18.33° C | 99% | 1015.4 hPa | 0 mm | - | 16 W/m² | - |
| 1778082073 | 17.78° C | 99% | 1015.4 hPa | 0 mm | - | 5 W/m² | - |
| 1778081767 | 17.78° C | 99% | 1015.5 hPa | 0 mm | - | 10 W/m² | - |
| 1778081155 | 19.44° C | 99% | 1015.6 hPa | 0 mm | - | 3 W/m² | - |
| 1778079624 | 18.33° C | 99% | 1015.6 hPa | 0 mm | - | 9 W/m² | - |
| 1778078399 | 17.78° C | 99% | 1015.7 hPa | 0 mm | - | 15 W/m² | - |
| 1778077481 | 17.78° C | 99% | 1015.7 hPa | 0 mm | - | 8 W/m² | - |
| 1778077175 | 17.78° C | 99% | 1015.6 hPa | 0 mm | - | 11 W/m² | - |
| 1778076257 | 17.78° C | 99% | 1015.7 hPa | 0 mm | - | 5 W/m² | - |
| 1778075644 | 18.89° C | 99% | 1015.6 hPa | 0 mm | - | 7 W/m² | - |
| 1778075338 | 18.89° C | 99% | 1015.6 hPa | 0 mm | - | 10 W/m² | - |
| 1778074115 | 17.78° C | 99% | 1015.5 hPa | 0 mm | - | 9 W/m² | - |
| 1778072586 | 18.89° C | 99% | 1015.2 hPa | 0 mm | - | 14 W/m² | - |
* Rain latest hour (hover to see other rain measurements)
** Current wind speed in m/s (hover to see current wind gust speed)